EHI
0 0 0 0 0 0 0 0 0 0 0 0 0 0 0 0 0 0 0 0 0 0 0 0 0 0 0 0 0 0 0 0 0 0 0 0 0 0
0 0 0 0 0 0 0 0 0 0 0 0 0 0 0 0 0 0 0 0 0 0 0 0 0 0 0 0 0 0 0 0 0 0 0 0 0 0
0 0 0 0 0 0 0 0 0 0 0 0 0 0 0 0 0 0 0 0 0 0 0 0 0 0 0 0 0 0 0 0 0 0 0 0 0 0
0 0 0 0 0 0 0 0 0 0 0 0 0 0 0 0 0 0 0 0 0 0 0 0 0 0 0 0 0 0 0 0 0 0 0 0 0 0
0 0 0 0 0 0 0 0 0 0 0 0 0 0 0 0 0 0 0 0 0 0 0 0 0 0 0 0 0 0 0 0 0 0 0 0 0 0
0 0 0 0 0 0 0 0 0 0 0 0 0 0 0 0 0 0 0 0 0 0 0 0 0 0 0 0 0 0 0 0 0 0 0 0 0 0
0 0 0 0 0 0 0 0 0 0 0 0 0 0 0 0 0 0 0 0 0 0 0 0 0 0 0 0 0 0 0 0 0 0 0 0 0 0
0 0 0 0 0 0 0 0 0 0 0 0 0 0 0 0 0 0 0 0 0 0 0 0 0 0 0 0 0 0 0 0 0 0 0 0 0 0
0 0 0 0 0 0 0 0 0 0 0 0 0 0 0 0 0 0 0 0 0 0 0 0 0 0 0 0 0 0 0 0 0 0 0 0 0 0
0 0 0 0 0 0 0 0 0 0 0 0 0 0 0 0 0 0 0 0 0 0 0 0 0 0 0 0 0 0 0 0 0 0 0 0 0 0
0 0 0 0 0 0 0 0 0 0 0 0 0 0 0 0 0 0 0 0 0 0 0 0 0 0 0 0 0 0 0 0 0 0 0 0 0 0
0 0 0 0 0 0 0 0 0 0 0 0 0 0 0 0 0 0 0 0 0 0 0 0 0 0 0 0 0 0 0 0 0 0 0 0 0 0
0 0 0 0 0 0 0 0 0 0 0 0 0 0 0 0 0 0 0 0 0 0 0 0 0 0 0 0 0 0 0 0 0 0 0 0 0 0
0 0 0 0 0 0 0 0 0 0 0 0 0 0 0 0 0 0 0 0 0 0 0 0 0 0 0 0 0 0 0 0 0 0 0 0 0 0
0 0 0 0 0 0 0 0 0 0 0 0 0 0 0 0 0 0 0 0 0 0 0 0 0 0 0 0 0 0 0 0 0 0 0 0 0 0
0 0 0 0 0 0 0 0 0 0 0 0 0 0 0 0 0 0 0 0 0 0 0 0 0 0 0 0 0 0 0 0 0 0 0 0 0 0
0 0 0 0 0 0 0 0 0 0 0 0 0 0 0 0 0 0 0 0 0 0 0 0 0 0 0 0 0 0 0 0 0 0 0 0 0 0
0 0 0 0 0 0 0 0 0 0 0 0 0 0 0 0 0 0 0 0 0 0 0 0 0 0 0 0 0 0 0 0 0 0 0 0 0 0
0 0 0 0 0 0 0 0 0 0 0 0 0 0 0 0 0 0 0 0 0 0 0 0 0 0 0 0 0 0 0 0 0 0 0 0 0 0
0 0 0 0 0 0 0 0 0 0 0 0 0 0 0 0 0 0 0 0 0 0 0 0 0 0 0 0 0 0 0 0 0 0 0 0 0 0
0 0 0 0 0 0 0 0 0 0 0 0 0 0 0 0 0 0 0 0 0 0 0 0 0 0 0 0 0 0 0 0 0 0 0 0 0 0
0 0 0 0 0 0 0 0 0 0 0 0 0 0 0 0 0 0 0 0 0 0 0 0 0 0 0 0 0 0 0 0 0 0 0 0 0 0
0 0 0 0 0 0 0 0 0 0 0 0 0 0 0 0 0 0 0 0 0 0 0 0 0 0 0 0 0 0 0 0 0 0 0 0 0 0
Wind_Speed
6 6 5 4 3 3 3 3 4 4 3 2 1 1 1 2 5 3 4 10 10 9 8 7 7 6 4 3 2 1 0 1 2 2 3 4 5 6
4 6 5 4 4 3 3 3 3 4 3 2 2 1 1 2 4 2 2 9 9 8 7 6 6 5 4 3 2 2 1 0 1 2 3 4 5 6
4 5 5 5 4 4 4 3 3 3 3 1 1 2 2 2 2 2 4 5 4 7 7 6 6 6 5 4 4 3 2 2 1 2 2 3 4 5
3 4 5 5 5 4 4 4 3 3 3 3 2 2 2 2 2 2 3 5 5 8 8 8 9 8 7 7 6 6 5 4 4 4 4 4 5 5
3 4 5 6 5 4 4 4 3 3 3 3 3 2 2 2 2 2 4 4 6 8 10 10 10 11 10 9 8 8 7 7 6 6 6 6 6 6
2 3 4 5 5 5 4 4 4 4 3 3 3 2 2 2 3 3 3 3 4 6 7 8 11 13 12 11 10 9 8 8 8 8 8 8 8 9
4 4 4 6 6 4 3 4 4 4 4 3 3 3 2 3 3 3 4 5 4 4 5 5 6 6 7 9 10 11 10 10 9 9 9 8 9 9
4 4 5 5 6 6 6 5 5 5 4 4 3 3 3 3 3 4 5 5 3 3 6 6 6 6 6 5 9 11 11 11 10 10 10 9 10 10
4 3 4 5 6 5 6 7 6 4 4 4 4 4 4 4 4 4 4 4 4 4 6 6 5 6 5 6 11 11 12 12 11 11 10 10 10 11
4 4 4 5 4 4 5 6 7 6 4 4 5 5 4 3 4 5 7 7 6 4 4 4 3 4 5 4 9 11 11 11 11 11 11 9 7 7
6 6 5 5 6 5 6 7 7 6 10 12 11 10 10 9 6 5 6 6 5 2 2 4 4 4 3 3 5 9 9 9 10 10 11 10 6 4
5 6 9 7 6 5 5 6 7 5 6 6 6 6 6 6 6 5 4 6 5 3 2 4 4 4 3 2 2 2 4 6 7 8 9 10 9 4
4 4 4 8 7 6 5 5 6 5 4 5 4 4 4 4 4 5 4 4 4 3 3 3 3 2 4 3 2 2 2 2 2 2 5 7 9 6
4 3 3 7 8 8 6 6 7 6 4 4 4 4 4 4 4 5 6 6 6 5 3 3 3 3 4 3 2 1 1 1 2 1 1 3 5 6
4 5 5 6 6 6 7 7 5 4 4 5 5 4 4 4 5 5 6 7 8 7 6 5 4 4 4 4 4 3 2 1 1 1 1 1 1 1
3 5 6 7 6 5 4 4 4 4 5 5 4 4 3 3 3 3 4 4 5 5 7 8 7 6 4 4 4 3 2 2 0 1 1 0 1 3
2 2 3 2 3 3 3 3 3 4 4 3 4 4 3 3 2 2 3 4 4 4 3 4 6 7 7 4 4 3 2 1 1 0 1 1 0 3
3 3 3 3 3 2 3 3 3 3 3 3 4 3 3 3 2 2 2 3 4 4 4 3 2 3 3 4 4 2 1 1 1 1 0 0 1 1
3 3 3 2 2 2 3 3 3 3 3 3 3 3 3 3 3 2 2 3 4 4 3 2 2 2 2 2 1 3 2 1 1 1 1 1 1 2
2 2 2 2 2 3 3 3 2 2 2 3 3 3 2 3 3 2 3 3 3 3 2 2 2 2 2 3 3 1 1 2 1 1 2 2 1 0
2 2 2 2 2 3 2 2 2 2 2 3 3 2 2 2 2 3 4 4 2 2 3 2 2 2 0 2 2 1 2 2 3 2 1 1 2 2
2 2 2 2 2 2 2 1 2 2 2 2 3 2 2 2 3 4 4 3 2 2 4 3 2 1 0 1 1 3 3 3 2 3 3 5 3 2
2 3 2 2 2 1 1 1 1 2 2 2 3 2 2 2 2 2 3 2 3 4 4 3 2 1 1 0 0 1 2 3 3 2 4 9 12 12
Wind_Direction
194 190 187 186 181 180 174 166 162 177 209 209 182 105 99 113 151 188 173 184 184 184 184 183 182 178 178 183 173 161 356 330 316 308 307 307 308 309
185 189 186 179 172 166 160 156 154 162 181 186 180 163 137 144 158 161 136 159 168 169 167 165 164 162 160 150 136 121 101 57 341 335 328 321 314 310
183 181 183 174 166 164 158 159 162 155 164 174 170 161 162 148 146 145 135 128 132 142 142 140 136 128 120 113 105 96 84 66 35 1 341 337 334 329
179 166 166 160 156 155 159 164 160 158 159 163 166 146 137 134 139 130 123 123 118 122 121 116 111 104 98 95 90 84 76 66 54 38 24 12 2 357
155 153 154 148 146 148 154 157 157 161 152 148 154 140 136 136 117 107 110 115 121 121 113 104 99 93 89 86 82 78 73 67 61 55 49 47 41 35
95 121 134 142 147 148 155 159 155 150 143 144 143 140 135 135 122 126 117 112 117 116 106 104 96 85 78 77 77 76 72 68 65 63 61 57 54 53
84 93 103 113 119 132 148 157 155 150 146 146 145 134 141 141 150 147 129 112 98 111 108 97 88 75 65 63 69 74 75 74 70 68 65 62 61 60
95 100 108 104 106 109 116 128 141 151 158 154 151 151 161 153 147 139 136 130 112 110 103 89 84 77 64 62 69 76 77 76 72 69 68 66 67 66
83 99 112 110 105 110 107 100 84 85 141 149 145 150 145 155 142 133 134 124 121 132 109 95 88 85 74 68 75 78 79 78 74 70 68 69 70 72
81 76 88 93 95 111 108 88 71 51 73 105 102 96 94 106 123 131 126 110 101 108 110 107 108 99 89 72 78 82 81 79 77 72 66 60 66 78
71 67 72 76 66 84 103 101 94 79 73 86 96 98 90 83 96 108 118 122 119 118 105 110 129 119 111 101 90 90 87 84 81 75 67 52 46 83
69 69 61 58 61 79 116 114 110 109 109 100 93 97 94 89 93 111 127 133 129 123 121 112 147 140 125 134 146 133 98 86 87 81 71 54 41 61
70 61 49 50 60 70 94 110 129 133 124 116 109 95 80 72 73 80 90 117 122 115 143 124 147 146 127 137 142 153 147 151 138 86 76 70 60 63
71 64 60 61 64 66 77 92 107 109 101 94 88 83 78 69 67 69 70 71 80 103 116 119 130 138 127 129 135 120 82 79 104 124 122 90 69 63
69 77 75 78 78 72 70 75 87 96 99 97 94 89 88 89 79 71 64 63 58 57 56 58 84 103 110 126 135 139 124 47 43 63 116 141 146 87
70 73 67 66 75 81 76 70 73 94 108 109 107 100 92 86 92 106 106 95 76 50 43 50 59 78 87 95 114 123 130 148 115 18 32 73 117 108
33 64 67 63 58 58 72 79 80 86 90 100 106 108 105 98 89 87 110 113 109 107 76 56 65 74 74 83 98 108 122 126 157 154 19 338 202 135
39 74 74 73 76 76 82 82 79 86 95 102 108 118 124 126 120 103 96 112 123 126 128 129 112 77 60 38 47 95 104 132 185 232 229 55 298 151
63 78 78 77 78 81 79 85 87 88 97 106 115 121 125 125 125 121 111 108 116 128 140 149 148 150 164 182 340 31 90 94 17 313 265 198 213 199
80 92 89 81 81 84 86 88 89 83 91 106 110 113 115 119 124 128 119 118 125 124 118 94 82 86 122 155 160 183 71 105 84 4 333 333 309 200
83 85 88 86 84 84 82 89 99 100 95 96 99 99 110 117 118 113 111 109 115 137 138 135 164 180 209 79 98 161 213 197 164 161 140 15 337 331
109 100 81 78 87 89 80 71 98 105 102 104 114 103 91 108 125 131 143 156 172 143 131 147 171 154 80 161 201 179 188 220 246 229 220 191 177 211
136 132 129 113 103 115 136 204 163 149 147 135 130 131 126 118 126 139 146 151 144 138 138 154 173 190 204 160 143 174 176 189 197 218 259 236 228 233